{"data":{"norad_id":64877,"epoch":"2026-05-25T02:56:47.188896Z","epoch_age_seconds":57606,"freshness":"FRESH","line1":"1 64877U 25155B   26145.12276839  .00000045  00000+0  40285-4 0  9997","line2":"2 64877  98.6012 107.5281 0000536  75.2101 284.9136 14.21483987 43124","mean_motion":14.21483987,"eccentricity":5.36e-5,"inclination_deg":98.6012,"raan_deg":107.5281,"arg_perigee_deg":75.2101,"mean_anomaly_deg":284.9136,"bstar":4.0285e-5,"rev_number":4312,"period_min":101.30258329811,"perigee_km":819.95259483551,"apogee_km":820.72427140194,"semimajor_km":7198.4754331187,"source":"CELESTRAK","updated_at":"2026-05-25T13:38:12.839118Z"}}